Location: Lane
(33.5226°N, 79.8788°W)
Time: 01:18:51
(UTC+00:00)

Vanguard 1 Rocket - Pass Details

Date: 07 October 2022
Orbit: 650 x 4225 km, 34.3° (Epoch: 05 December)

Event Time Altitude Azimuth Distance (km) Brightness Sun altitude
Rises 02:51:08 0° 273° (W) 7,844 12.7 -47.7°
Reaches altitude 10° 02:57:10 10° 274° (W) 6,374 12.1 -48.8°
Enters shadow 03:11:30 57° 278° (W) 2,637 9.6 -51.1°
